User: anonymous   Login
Location: Unspecified
(0.0000°N, 0.0000°E)
Time: 16:52:09
(UTC+00:00)
Language:

SO-67 - Orbit

View from above orbital plane
View from above orbital plane
View from above satellite
View from above satellite

Ground track
Ground track

The orbit data is extracted from the following two-line orbital elements,

1 35870U 09049F   15027.23257212  .00009156  00000-0  24681-3 0  9203
2 35870 097.1454 046.8954 0002933 050.1360 016.2014 15.38022166298426
Epoch (UTC): 27 January 2015 05:34:54
Eccentricity: 0.0002933
inclination: 97.1454°
perigee height: 450 km
apogee height: 454 km
right ascension of ascending node: 46.8954°
argument of perigee: 50.1360°
revolutions per day: 15.38022166
mean anomaly at epoch: 16.2014°
orbit number at epoch: 29842

The dashed part of the orbit path shows where the satellite is in the earth's shadow,  

DLR